Regional Weather Roundup
Issued by NWS Portland, ME

Current Version | Previous Version | Text Only | Print | Product List | Glossary On
Versions: 1 2 3 4 5 6 7 8 9 10 11 12 13 14 15 16 17 18 19 20 21 22 23 24 25 26 27 28 29 30 31 32 33 34 35 36 37 38 39 40 41 42 43 44 45 46 47 48 49 50
000 ASUS41 KGYX 290410 RWRGYX WEATHER ROUNDUP FOR MAINE AND NEW HAMPSHIRE NATIONAL WEATHER SERVICE GRAY ME 1200 AM EDT SUN MAR 29 2015 MEZ002-005-006-010-012-015-018-020-021-024-026-027-029-290500- MAINE CITY SKY/WX TMP DP RH WIND PRES REMARKS PORTLAND PTCLDY 30 13 49 N13 30.01R WCI 20 SANFORD CLEAR 28 10 47 NW8 30.01R BAR HARBOR CLEAR 30 16 55 N5 29.94R WISCASSET PTCLDY 30 13 49 VRB6 30.00R ROCKLAND CLOUDY 30 10 43 NW9 29.95R FRYEBURG PTCLDY 25 6 44 N9 30.02R LEWISTONAUBURN PTCLDY 27 9 46 NW12G21 30.00R WCI 16 AUGUSTA CLEAR 27 9 46 NW14G20 29.99R WCI 16 WATERVILLE PTCLDY 28 9 43 NW12 29.96R WCI 18 BANGOR CLOUDY 29 9 43 N15 29.96R WCI 18 GREENVILLE N/A 19 3 49 NW8 29.89R MILLINOCKET PTCLDY 25 4 40 NW6 29.95R HOULTON CLOUDY 24 -1 33 N10 29.90R WCI 14 PRESQUE ISLE CLOUDY 23 3 42 NW10 29.92R WCI 12 FRENCHVILLE PTCLDY 16 3 56 NW9 29.89R CARIBOU CLOUDY 21 4 47 NW9 29.90R $$ NHZ002-005-008-009-011-012-014-290500- NEW HAMPSHIRE CITY SKY/WX TMP DP RH WIND PRES REMARKS PORTSMOUTH CLOUDY 29 14 53 NW14 30.01R WCI 19 ROCHESTER MOCLDY 27 11 51 NW16 30.00R WCI 15 NASHUA PTCLDY 28 9 45 NW14G23 30.05R WCI 17 MANCHESTER PTCLDY 27 12 53 NW10 30.03R WCI 17 CONCORD PTCLDY 26 4 38 NW17G24 30.04R WCI 13 LACONIA PTCLDY 25 1 36 W6G18 30.01R PLYMOUTH FAIR 24 9 53 W8 30.05R BERLIN PTCLDY 16 6 65 CALM 30.00R WHITEFIELD PTCLDY 17 4 56 CALM 30.04R JAFFREY MOCLDY 21 4 47 N8 30.02R KEENE PTCLDY 25 3 39 N7 30.06S LEBANON CLEAR 23 5 46 N5 30.07R MT WASHINGTON MOCLDY 0 -11 60 N13 N/A WCI -18 $$ VTZ005-007-008-290500- VERMONT CITY SKY/WX TMP DP RH WIND PRES REMARKS ST JOHNSBURY N/A 19 6 57 MISG 30.06R MONTPELIER CLEAR 17 3 54 NW5 30.08S BURLINGTON CLEAR 18 9 68 CALM 30.12R $$ MAZ007-012-024-CTZ003-RIZ002-NYZ038-NYZ072-290500- SOUTHERN NEW ENGLAND AND NY CITY SKY/WX TMP DP RH WIND PRES REMARKS BOSTON CLOUDY 32 19 58 NW16G25 30.02R WORCESTER CLOUDY 24 16 71 NW13G20 29.99R WCI 12 NANTUCKET CLOUDY 33 29 85 NE5 29.98R PROVIDENCE FLURRIES 31 27 85 N14G20 30.03R HARTFORD CLOUDY 30 16 56 N15G23 30.06R WCI 19 ALBANY MOCLDY 25 8 48 NW12G17 30.15R WCI 14 NEW YORK CITY FLURRIES 29 19 66 NW14G22 30.12R WCI 18 $$ ANZ081-ANZ082-ANZ150-NHZ014-MEZ023>029-290500- COASTAL MARINE OBSERVATIONS STATION/POSITION TIME TEMP WIND PRES WAVE AIR SEA DIR/SP/G HT/PER (UTC) (F) (DEG/KT/KT) (MB) (FT/S) MOUNT DESERT ROC 0400 35 1012.7R MATINICUS ROCK 0400 33 350/ 24/ 27 1013.7R WELLS 0300 32 320/ 7/ 8 1014.7R ISLE OF SHOALS 0300 34 320/ 19/ 22 1014.4R JEFFREYS LEDGE 0321 40 N/A 6/11 CASHES LEDGE BUO 0350 37 38 1013.2F 6/11 $$ .............KEY.............. WCI - WIND CHILL TC - TEMPERATURE IN CELSIUS VSB - VISIBILITY IN MILES HX - HEAT INDEX FAIR- INDICATES FEW OR NO CLOUDS BELOW 12,000 FT, WITH NO SIGNIFICANT WEATHER AND/OR OBSTRUCTIONS TO VISIBILITY.

USA.gov is the U.S. government's official web portal to all federal, state and local government web resources and services.